Time,TemperatureF,DewpointF,PressureIn,WindDirection,WindDirectionDegrees,WindSpeedMPH,WindSpeedGustMPH,Humidity,HourlyPrecipIn,Conditions,Clouds,dailyrainin,SoftwareType,DateUTC
2013-05-05 00:02:00,50.0,37.0,29.93,SSW,211,0.0,-999.0,60,-99.99,,,-99.99,,2013-05-05 04:02:00,
2013-05-05 00:12:00,50.0,37.0,29.93,SSW,211,0.0,-999.0,60,-99.99,,,-99.99,,2013-05-05 04:12:00,
2013-05-05 00:23:00,51.0,39.0,29.94,SW,233,0.0,-999.0,64,-99.99,,,-99.99,,2013-05-05 04:23:00,
2013-05-05 00:33:00,51.0,39.0,29.93,WSW,251,0.0,-999.0,64,-99.99,,,-99.99,,2013-05-05 04:33:00,
2013-05-05 00:43:00,51.0,39.0,29.93,WSW,251,0.0,-999.0,64,-99.99,,,-99.99,,2013-05-05 04:43:00,
2013-05-05 00:53:00,49.0,39.0,29.94,WSW,251,0.0,-999.0,67,-99.99,,,-99.99,,2013-05-05 04:53:00,
2013-05-05 01:02:00,49.0,39.0,29.94,WSW,251,0.0,-999.0,68,-99.99,,,-99.99,,2013-05-05 05:02:00,
2013-05-05 01:12:00,49.0,39.0,29.94,WSW,251,0.0,-999.0,68,-99.99,,,-99.99,,2013-05-05 05:12:00,
2013-05-05 01:22:00,48.0,39.0,29.94,WSW,251,0.0,-999.0,70,-99.99,,,-99.99,,2013-05-05 05:22:00,
2013-05-05 01:32:00,46.0,37.0,29.94,WSW,251,0.0,-999.0,72,-99.99,,,-99.99,,2013-05-05 05:32:00,
2013-05-05 01:42:00,46.0,37.0,29.94,WSW,251,0.0,-999.0,72,-99.99,,,-99.99,,2013-05-05 05:42:00,
2013-05-05 01:52:00,46.0,39.0,29.94,WSW,251,0.0,-999.0,76,-99.99,,,-99.99,,2013-05-05 05:52:00,
2013-05-05 02:01:00,46.0,39.0,29.94,WSW,251,0.0,-999.0,75,-99.99,,,-99.99,,2013-05-05 06:01:00,
2013-05-05 02:12:00,46.0,39.0,29.94,WSW,251,0.0,-999.0,75,-99.99,,,-99.99,,2013-05-05 06:12:00,
2013-05-05 02:22:00,47.0,39.0,29.94,SSW,208,0.0,-999.0,73,-99.99,,,-99.99,,2013-05-05 06:22:00,
2013-05-05 02:32:00,46.0,38.0,29.93,SSW,208,0.0,-999.0,74,-99.99,,,-99.99,,2013-05-05 06:32:00,
2013-05-05 02:42:00,46.0,38.0,29.93,SSW,208,0.0,-999.0,74,-99.99,,,-99.99,,2013-05-05 06:42:00,
2013-05-05 02:52:00,45.0,37.0,29.94,North,353,0.0,-999.0,74,-99.99,,,-99.99,,2013-05-05 06:52:00,
2013-05-05 03:01:00,45.0,37.0,29.94,NNE,23,0.0,-999.0,73,-99.99,,,-99.99,,2013-05-05 07:01:00,
2013-05-05 03:11:00,45.0,37.0,29.94,NNE,23,0.0,-999.0,73,-99.99,,,-99.99,,2013-05-05 07:11:00,
2013-05-05 03:22:00,45.0,37.0,29.94,WSW,253,0.0,-999.0,74,-99.99,,,-99.99,,2013-05-05 07:22:00,
2013-05-05 03:32:00,44.0,37.0,29.94,WSW,253,0.0,-999.0,76,-99.99,,,-99.99,,2013-05-05 07:32:00,
2013-05-05 03:42:00,44.0,37.0,29.94,WSW,253,0.0,-999.0,76,-99.99,,,-99.99,,2013-05-05 07:42:00,
2013-05-05 03:52:00,42.0,37.0,29.95,WSW,253,1.0,-999.0,82,-99.99,,,-99.99,,2013-05-05 07:52:00,
2013-05-05 04:02:00,41.0,36.0,29.95,WSW,253,0.0,-999.0,83,-99.99,,,-99.99,,2013-05-05 08:02:00,
2013-05-05 04:11:00,41.0,36.0,29.95,WSW,253,0.0,-999.0,83,-99.99,,,-99.99,,2013-05-05 08:11:00,
2013-05-05 04:22:00,41.0,37.0,29.95,WSW,253,0.0,-999.0,84,-99.99,,,-99.99,,2013-05-05 08:22:00,
2013-05-05 04:32:00,40.0,36.0,29.95,WSW,253,0.0,-999.0,84,-99.99,,,-99.99,,2013-05-05 08:32:00,
2013-05-05 04:42:00,40.0,36.0,29.95,WSW,253,0.0,-999.0,84,-99.99,,,-99.99,,2013-05-05 08:42:00,
2013-05-05 04:53:00,39.0,35.0,29.95,WSW,253,0.0,-999.0,86,-99.99,,,-99.99,,2013-05-05 08:53:00,
2013-05-05 05:01:00,38.0,34.0,29.95,WSW,253,0.0,-999.0,86,-99.99,,,-99.99,,2013-05-05 09:01:00,
2013-05-05 05:11:00,38.0,34.0,29.95,WSW,253,0.0,-999.0,86,-99.99,,,-99.99,,2013-05-05 09:11:00,
2013-05-05 05:21:00,37.0,34.0,29.96,WSW,253,0.0,-999.0,88,-99.99,,,-99.99,,2013-05-05 09:21:00,
2013-05-05 05:33:00,37.0,34.0,29.96,WSW,253,0.0,-999.0,88,-99.99,,,-99.99,,2013-05-05 09:33:00,
2013-05-05 05:42:00,37.0,34.0,29.96,WSW,253,0.0,-999.0,88,-99.99,,,-99.99,,2013-05-05 09:42:00,
2013-05-05 05:52:00,39.0,35.0,29.96,WSW,253,0.0,-999.0,86,-99.99,,,-99.99,,2013-05-05 09:52:00,
2013-05-05 06:03:00,39.0,35.0,29.96,WSW,253,0.0,-999.0,85,-99.99,,,-99.99,,2013-05-05 10:03:00,
2013-05-05 06:12:00,39.0,35.0,29.96,WSW,253,0.0,-999.0,85,-99.99,,,-99.99,,2013-05-05 10:12:00,
2013-05-05 06:22:00,38.0,34.0,29.96,WSW,253,0.0,-999.0,86,-99.99,,,-99.99,,2013-05-05 10:22:00,
2013-05-05 06:32:00,38.0,34.0,29.96,WSW,253,0.0,-999.0,86,-99.99,,,-99.99,,2013-05-05 10:32:00,
2013-05-05 06:42:00,38.0,34.0,29.96,WSW,253,0.0,-999.0,86,-99.99,,,-99.99,,2013-05-05 10:42:00,
2013-05-05 06:53:00,41.0,35.0,29.97,WSW,253,0.0,-999.0,80,-99.99,,,-99.99,,2013-05-05 10:53:00,
2013-05-05 07:01:00,42.0,35.0,29.97,WSW,253,0.0,-999.0,77,-99.99,,,-99.99,,2013-05-05 11:01:00,
2013-05-05 07:12:00,42.0,35.0,29.97,WSW,253,0.0,-999.0,77,-99.99,,,-99.99,,2013-05-05 11:12:00,
2013-05-05 07:22:00,46.0,37.0,29.97,West,264,0.0,-999.0,71,-99.99,,,-99.99,,2013-05-05 11:22:00,
2013-05-05 07:32:00,47.0,38.0,29.97,WNW,299,0.0,-999.0,70,-99.99,,,-99.99,,2013-05-05 11:32:00,
2013-05-05 07:42:00,47.0,38.0,29.97,WNW,299,0.0,-999.0,70,-99.99,,,-99.99,,2013-05-05 11:42:00,
2013-05-05 07:52:00,49.0,37.0,29.96,WNW,299,0.0,-999.0,63,-99.99,,,-99.99,,2013-05-05 11:52:00,
2013-05-05 08:02:00,49.0,36.0,29.96,WNW,293,0.0,-999.0,61,-99.99,,,-99.99,,2013-05-05 12:02:00,
2013-05-05 08:11:00,49.0,36.0,29.96,WNW,293,0.0,-999.0,61,-99.99,,,-99.99,,2013-05-05 12:11:00,
2013-05-05 08:22:00,51.0,38.0,29.96,NNW,329,0.0,-999.0,61,-99.99,,,-99.99,,2013-05-05 12:22:00,
2013-05-05 08:32:00,51.0,37.0,29.96,NNW,327,0.0,-999.0,59,-99.99,,,-99.99,,2013-05-05 12:32:00,
2013-05-05 08:42:00,51.0,37.0,29.96,NNW,327,0.0,-999.0,59,-99.99,,,-99.99,,2013-05-05 12:42:00,
2013-05-05 08:52:00,53.0,37.0,29.96,SW,226,0.0,-999.0,55,-99.99,,,-99.99,,2013-05-05 12:52:00,
2013-05-05 09:01:00,53.0,37.0,29.96,West,270,0.0,-999.0,55,-99.99,,,-99.99,,2013-05-05 13:01:00,
2013-05-05 09:11:00,53.0,37.0,29.96,West,270,0.0,-999.0,55,-99.99,,,-99.99,,2013-05-05 13:11:00,
2013-05-05 09:21:00,55.0,38.0,29.96,NNW,341,1.0,-999.0,52,-99.99,,,-99.99,,2013-05-05 13:21:00,
2013-05-05 09:32:00,55.0,37.0,29.95,NE,36,1.0,-999.0,51,-99.99,,,-99.99,,2013-05-05 13:32:00,
2013-05-05 09:42:00,55.0,37.0,29.95,NE,36,1.0,-999.0,51,-99.99,,,-99.99,,2013-05-05 13:42:00,
2013-05-05 09:52:00,57.0,37.0,29.95,NW,318,0.0,-999.0,47,-99.99,,,-99.99,,2013-05-05 13:52:00,
2013-05-05 10:02:00,57.0,36.0,29.94,North,11,1.0,-999.0,46,-99.99,,,-99.99,,2013-05-05 14:02:00,
2013-05-05 10:11:00,57.0,36.0,29.94,North,11,1.0,-999.0,46,-99.99,,,-99.99,,2013-05-05 14:11:00,
2013-05-05 10:21:00,59.0,38.0,29.93,NW,310,1.0,-999.0,45,-99.99,,,-99.99,,2013-05-05 14:21:00,
2013-05-05 10:32:00,60.0,38.0,29.93,North,358,1.0,-999.0,44,-99.99,,,-99.99,,2013-05-05 14:32:00,
2013-05-05 10:42:00,60.0,38.0,29.93,North,358,1.0,-999.0,44,-99.99,,,-99.99,,2013-05-05 14:42:00,
2013-05-05 10:52:00,61.0,38.0,29.92,NE,47,1.0,-999.0,43,-99.99,,,-99.99,,2013-05-05 14:52:00,
2013-05-05 11:02:00,61.0,38.0,29.92,NE,47,1.0,-999.0,43,-99.99,,,-99.99,,2013-05-05 15:02:00,
2013-05-05 11:11:00,61.0,38.0,29.92,NE,47,1.0,-999.0,43,-99.99,,,-99.99,,2013-05-05 15:11:00,
2013-05-05 11:21:00,63.0,38.0,29.92,ENE,59,1.0,-999.0,39,-99.99,,,-99.99,,2013-05-05 15:21:00,
2013-05-05 11:33:00,63.0,38.0,29.91,ESE,108,1.0,-999.0,39,-99.99,,,-99.99,,2013-05-05 15:33:00,
2013-05-05 11:43:00,63.0,38.0,29.91,ESE,108,1.0,-999.0,39,-99.99,,,-99.99,,2013-05-05 15:43:00,
2013-05-05 11:53:00,65.0,37.0,29.90,ESE,106,1.0,-999.0,36,-99.99,,,-99.99,,2013-05-05 15:53:00,
2013-05-05 12:03:00,66.0,38.0,29.90,ENE,76,1.0,-999.0,35,-99.99,,,-99.99,,2013-05-05 16:03:00,
2013-05-05 12:12:00,66.0,38.0,29.90,ENE,76,1.0,-999.0,35,-99.99,,,-99.99,,2013-05-05 16:12:00,
2013-05-05 12:23:00,68.0,35.0,29.89,ENE,75,1.0,-999.0,30,-99.99,,,-99.99,,2013-05-05 16:23:00,
2013-05-05 12:32:00,68.0,35.0,29.88,SSE,149,1.0,-999.0,30,-99.99,,,-99.99,,2013-05-05 16:32:00,
2013-05-05 12:42:00,68.0,35.0,29.88,SSE,149,1.0,-999.0,30,-99.99,,,-99.99,,2013-05-05 16:42:00,
2013-05-05 12:53:00,70.0,36.0,29.88,NW,326,2.0,-999.0,29,-99.99,,,-99.99,,2013-05-05 16:53:00,
2013-05-05 13:02:00,70.0,37.0,29.87,East,101,2.0,-999.0,30,-99.99,,,-99.99,,2013-05-05 17:02:00,
2013-05-05 13:12:00,70.0,37.0,29.87,East,101,2.0,-999.0,30,-99.99,,,-99.99,,2013-05-05 17:12:00,
2013-05-05 13:23:00,71.0,38.0,29.87,SE,135,1.0,-999.0,30,-99.99,,,-99.99,,2013-05-05 17:23:00,
2013-05-05 13:32:00,71.0,37.0,29.87,NE,51,1.0,-999.0,29,-99.99,,,-99.99,,2013-05-05 17:32:00,
2013-05-05 13:42:00,71.0,37.0,29.87,NE,51,1.0,-999.0,29,-99.99,,,-99.99,,2013-05-05 17:42:00,
2013-05-05 13:52:00,73.0,36.0,29.86,NNE,32,1.0,-999.0,26,-99.99,,,-99.99,,2013-05-05 17:52:00,
2013-05-05 14:01:00,73.0,38.0,29.85,East,92,1.0,-999.0,28,-99.99,,,-99.99,,2013-05-05 18:01:00,
2013-05-05 14:12:00,73.0,38.0,29.85,East,92,1.0,-999.0,28,-99.99,,,-99.99,,2013-05-05 18:12:00,
2013-05-05 14:21:00,74.0,40.0,29.85,ESE,104,3.0,-999.0,29,-99.99,,,-99.99,,2013-05-05 18:21:00,
2013-05-05 14:32:00,74.0,40.0,29.84,ESE,114,3.0,-999.0,29,-99.99,,,-99.99,,2013-05-05 18:32:00,
2013-05-05 14:42:00,74.0,40.0,29.84,ESE,114,3.0,-999.0,29,-99.99,,,-99.99,,2013-05-05 18:42:00,
2013-05-05 14:52:00,75.0,37.0,29.84,NNW,328,2.0,-999.0,25,-99.99,,,-99.99,,2013-05-05 18:52:00,
2013-05-05 15:01:00,75.0,37.0,29.83,SW,226,2.0,-999.0,25,-99.99,,,-99.99,,2013-05-05 19:01:00,
2013-05-05 15:12:00,75.0,37.0,29.83,SW,226,2.0,-999.0,25,-99.99,,,-99.99,,2013-05-05 19:12:00,
2013-05-05 15:21:00,76.0,37.0,29.83,ENE,76,2.0,-999.0,24,-99.99,,,-99.99,,2013-05-05 19:21:00,
2013-05-05 15:32:00,75.0,36.0,29.82,East,85,3.0,-999.0,24,-99.99,,,-99.99,,2013-05-05 19:32:00,
2013-05-05 15:42:00,75.0,36.0,29.82,East,85,3.0,-999.0,24,-99.99,,,-99.99,,2013-05-05 19:42:00,
2013-05-05 15:52:00,76.0,36.0,29.82,NW,324,1.0,-999.0,23,-99.99,,,-99.99,,2013-05-05 19:52:00,
2013-05-05 16:01:00,76.0,36.0,29.82,NW,324,1.0,-999.0,23,-99.99,,,-99.99,,2013-05-05 20:01:00,
2013-05-05 16:11:00,76.0,36.0,29.82,NW,324,1.0,-999.0,23,-99.99,,,-99.99,,2013-05-05 20:11:00,
2013-05-05 16:21:00,77.0,35.0,29.81,NNE,20,2.0,-999.0,22,-99.99,,,-99.99,,2013-05-05 20:21:00,
2013-05-05 16:32:00,76.0,34.0,29.81,ESE,116,1.0,-999.0,22,-99.99,,,-99.99,,2013-05-05 20:32:00,
2013-05-05 16:42:00,76.0,34.0,29.81,ESE,116,1.0,-999.0,22,-99.99,,,-99.99,,2013-05-05 20:42:00,
2013-05-05 16:52:00,77.0,36.0,29.81,NNE,16,1.0,-999.0,23,-99.99,,,-99.99,,2013-05-05 20:52:00,
2013-05-05 17:02:00,77.0,34.0,29.80,East,85,1.0,-999.0,21,-99.99,,,-99.99,,2013-05-05 21:02:00,
2013-05-05 17:11:00,77.0,34.0,29.80,East,85,1.0,-999.0,21,-99.99,,,-99.99,,2013-05-05 21:11:00,
2013-05-05 17:21:00,77.0,37.0,29.80,NE,47,2.0,-999.0,24,-99.99,,,-99.99,,2013-05-05 21:21:00,
2013-05-05 17:33:00,77.0,38.0,29.80,NE,49,1.0,-999.0,25,-99.99,,,-99.99,,2013-05-05 21:33:00,
2013-05-05 17:42:00,77.0,38.0,29.80,NE,49,1.0,-999.0,25,-99.99,,,-99.99,,2013-05-05 21:42:00,
2013-05-05 17:53:00,77.0,37.0,29.80,ESE,115,1.0,-999.0,24,-99.99,,,-99.99,,2013-05-05 21:53:00,
2013-05-05 18:02:00,76.0,38.0,29.80,East,95,1.0,-999.0,25,-99.99,,,-99.99,,2013-05-05 22:02:00,
2013-05-05 18:12:00,76.0,38.0,29.80,East,95,1.0,-999.0,25,-99.99,,,-99.99,,2013-05-05 22:12:00,
2013-05-05 18:22:00,75.0,37.0,29.80,East,88,2.0,-999.0,25,-99.99,,,-99.99,,2013-05-05 22:22:00,
2013-05-05 18:33:00,73.0,38.0,29.80,East,80,2.0,-999.0,28,-99.99,,,-99.99,,2013-05-05 22:33:00,
2013-05-05 18:42:00,73.0,38.0,29.80,East,80,2.0,-999.0,28,-99.99,,,-99.99,,2013-05-05 22:42:00,
2013-05-05 18:52:00,72.0,38.0,29.80,ENE,63,2.0,-999.0,29,-99.99,,,-99.99,,2013-05-05 22:52:00,
2013-05-05 19:02:00,72.0,38.0,29.80,ENE,63,2.0,-999.0,29,-99.99,,,-99.99,,2013-05-05 23:02:00,
2013-05-05 19:12:00,72.0,38.0,29.80,ENE,63,2.0,-999.0,29,-99.99,,,-99.99,,2013-05-05 23:12:00,
2013-05-05 19:22:00,71.0,39.0,29.81,East,100,2.0,-999.0,31,-99.99,,,-99.99,,2013-05-05 23:22:00,
2013-05-05 19:32:00,70.0,37.0,29.82,NE,55,1.0,-999.0,30,-99.99,,,-99.99,,2013-05-05 23:32:00,
2013-05-05 19:42:00,70.0,37.0,29.82,NE,55,1.0,-999.0,30,-99.99,,,-99.99,,2013-05-05 23:42:00,
2013-05-05 19:52:00,69.0,36.0,29.82,ENE,59,1.0,-999.0,30,-99.99,,,-99.99,,2013-05-05 23:52:00,
2013-05-05 20:01:00,68.0,36.0,29.82,East,87,0.0,-999.0,31,-99.99,,,-99.99,,2013-05-06 00:01:00,
2013-05-05 20:11:00,68.0,36.0,29.82,East,87,0.0,-999.0,31,-99.99,,,-99.99,,2013-05-06 00:11:00,
2013-05-05 20:22:00,67.0,36.0,29.83,East,83,0.0,-999.0,32,-99.99,,,-99.99,,2013-05-06 00:22:00,
2013-05-05 20:32:00,65.0,36.0,29.83,ESE,121,0.0,-999.0,34,-99.99,,,-99.99,,2013-05-06 00:32:00,
2013-05-05 20:42:00,65.0,36.0,29.83,ESE,121,0.0,-999.0,34,-99.99,,,-99.99,,2013-05-06 00:42:00,
2013-05-05 20:52:00,65.0,35.0,29.84,East,85,2.0,-999.0,33,-99.99,,,-99.99,,2013-05-06 00:52:00,
2013-05-05 21:01:00,64.0,34.0,29.84,ESE,113,2.0,-999.0,33,-99.99,,,-99.99,,2013-05-06 01:01:00,
2013-05-05 21:11:00,64.0,34.0,29.84,ESE,113,2.0,-999.0,33,-99.99,,,-99.99,,2013-05-06 01:11:00,
2013-05-05 21:21:00,63.0,34.0,29.85,SE,139,0.0,-999.0,34,-99.99,,,-99.99,,2013-05-06 01:21:00,
2013-05-05 21:32:00,61.0,36.0,29.86,SW,226,0.0,-999.0,40,-99.99,,,-99.99,,2013-05-06 01:32:00,
2013-05-05 21:42:00,61.0,36.0,29.86,SW,226,0.0,-999.0,40,-99.99,,,-99.99,,2013-05-06 01:42:00,
2013-05-05 21:52:00,60.0,34.0,29.86,SE,141,0.0,-999.0,38,-99.99,,,-99.99,,2013-05-06 01:52:00,
2013-05-05 22:02:00,60.0,34.0,29.86,SE,141,0.0,-999.0,38,-99.99,,,-99.99,,2013-05-06 02:02:00,
2013-05-05 22:12:00,60.0,34.0,29.86,SE,141,0.0,-999.0,38,-99.99,,,-99.99,,2013-05-06 02:12:00,
2013-05-05 22:21:00,60.0,36.0,29.87,East,90,1.0,-999.0,40,-99.99,,,-99.99,,2013-05-06 02:21:00,
2013-05-05 22:32:00,59.0,34.0,29.86,East,90,0.0,-999.0,39,-99.99,,,-99.99,,2013-05-06 02:32:00,
2013-05-05 22:42:00,59.0,34.0,29.86,East,90,0.0,-999.0,39,-99.99,,,-99.99,,2013-05-06 02:42:00,
2013-05-05 22:52:00,58.0,35.0,29.87,East,101,0.0,-999.0,42,-99.99,,,-99.99,,2013-05-06 02:52:00,
2013-05-05 23:02:00,57.0,34.0,29.86,ESE,114,0.0,-999.0,42,-99.99,,,-99.99,,2013-05-06 03:02:00,
2013-05-05 23:11:00,57.0,34.0,29.86,ESE,114,0.0,-999.0,42,-99.99,,,-99.99,,2013-05-06 03:11:00,
2013-05-05 23:22:00,56.0,36.0,29.86,NE,41,0.0,-999.0,46,-99.99,,,-99.99,,2013-05-06 03:22:00,
2013-05-05 23:33:00,56.0,36.0,29.87,SSW,203,1.0,-999.0,47,-99.99,,,-99.99,,2013-05-06 03:33:00,
2013-05-05 23:42:00,56.0,36.0,29.87,SSW,203,1.0,-999.0,47,-99.99,,,-99.99,,2013-05-06 03:42:00,
2013-05-05 23:53:00,53.0,36.0,29.87,SSW,198,1.0,-999.0,53,-99.99,,,-99.99,,2013-05-06 03:53:00,